A/2020 A1

Japanese version
Home page
Updated on July 24, 2022

---------------------------------------------------------------------

* Profile

Discovery Date January 1, 2020
Magnitude 20 mag
Discoverer Near-Earth Object Wide-field Infrared Survey Explorer

* Orbital Elements

Epoch 2022 Aug. 9.0 TT = JDT 2459800.5
T 2019 Dec. 2.66993 TT                                  Rudenko
q   1.6674083            (2000.0)            P               Q
n   0.00754155     Peri.  302.57724     -0.89355854     -0.00877493
a  25.7530721      Node   119.24325     +0.27959489     +0.77137084
e   0.9352540      Incl.  149.04116     -0.35125466     +0.63632541
P 131              H   18.0
From 44 observations 2019 Dec. 12-2020 Jan. 30, mean residual 0".5.

* Magnitudes Graph

        H = 18.0  G = 0.15

---------------------------------------------------------------------

The orbital elements are published on M.P.E.C. 2022-O08.
The magnitudes graphs are made with Comet for Windows.

---------------------------------------------------------------------

Copyright(C) Seiichi Yoshida (comet@aerith.net). All rights reserved.